| time (UTC) | temp C | wind direction | speed KPH | gust KPH | rain 1hr cm | rain 24hr cm | rain mn cm | humidity % | barometer mb |
| 20260503200506 | 17 | 195 | 1.6 | 19.3 | 0.00 | 0.00 | 0.00 | 38 | 1015.8 |
| 20260503200006 | 16 | 200 | 4.8 | 19.3 | 0.00 | 0.00 | 0.00 | 37 | 1015.9 |
| 20260503195505 | 16 | 190 | 4.8 | 17.7 | 0.00 | 0.00 | 0.00 | 36 | 1015.9 |
| 20260503195006 | 17 | 177 | 3.2 | 16.1 | 0.00 | 0.00 | 0.00 | 36 | 1016.0 |
| 20260503194506 | 17 | 176 | 4.8 | 12.9 | 0.00 | 0.00 | 0.00 | 38 | 1016.2 |
| 20260503194006 | 17 | 184 | 4.8 | 17.7 | 0.00 | 0.00 | 0.00 | 37 | 1016.4 |
| 20260503193006 | 17 | 0 | 0.0 | 17.7 | 0.00 | 0.00 | 0.00 | 37 | 1016.7 |
| 20260503192506 | 17 | 183 | 1.6 | 17.7 | 0.00 | 0.00 | 0.00 | 37 | 1016.8 |
| 20260503192006 | 17 | 207 | 1.6 | 12.9 | 0.00 | 0.00 | 0.00 | 36 | 1016.9 |
| 20260503191505 | 17 | 202 | 3.2 | 16.1 | 0.00 | 0.00 | 0.00 | 36 | 1017.0 |
| 20260503191006 | 17 | 174 | 3.2 | 16.1 | 0.00 | 0.00 | 0.00 | 35 | 1017.1 |
| 20260503190505 | 17 | 171 | 3.2 | 17.7 | 0.00 | 0.00 | 0.00 | 36 | 1017.1 |
| 20260503185506 | 16 | 195 | 3.2 | 14.5 | 0.00 | 0.00 | 0.00 | 36 | 1017.1 |
| 20260503185005 | 16 | 206 | 3.2 | 14.5 | 0.00 | 0.00 | 0.00 | 37 | 1017.3 |
| 20260503184005 | 16 | 228 | 1.6 | 12.9 | 0.00 | 0.00 | 0.00 | 36 | 1017.5 |
| 20260503183505 | 16 | 197 | 1.6 | 14.5 | 0.00 | 0.00 | 0.00 | 35 | 1017.5 |
| 20260503183006 | 16 | 194 | 3.2 | 14.5 | 0.00 | 0.00 | 0.00 | 36 | 1017.5 |
| 20260503182006 | 16 | 192 | 3.2 | 19.3 | 0.00 | 0.00 | 0.00 | 39 | 1017.7 |
| 20260503181005 | 16 | 182 | 4.8 | 20.9 | 0.00 | 0.00 | 0.00 | 37 | 1017.8 |
| 20260503180006 | 16 | 173 | 3.2 | 17.7 | 0.00 | 0.00 | 0.00 | 36 | 1017.9 |
| 20260503175505 | 16 | 170 | 4.8 | 17.7 | 0.00 | 0.00 | 0.00 | 35 | 1018.0 |
| 20260503175005 | 16 | 173 | 3.2 | 16.1 | 0.00 | 0.00 | 0.00 | 35 | 1018.0 |
| 20260503174506 | 16 | 164 | 1.6 | 14.5 | 0.00 | 0.00 | 0.00 | 40 | 1018.0 |
| 20260503174005 | 16 | 0 | 0.0 | 14.5 | 0.00 | 0.00 | 0.00 | 36 | 1018.0 |
| 20260503173505 | 16 | 0 | 0.0 | 1.6 | 0.00 | 0.00 | 0.00 | 38 | 1018.2 |
| 20260503172505 | 15 | 0 | 0.0 | 1.6 | 0.00 | 0.00 | 0.00 | 36 | 1018.4 |
| 20260503172005 | 15 | 0 | 0.0 | 1.6 | 0.00 | 0.00 | 0.00 | 38 | 1018.6 |
| 20260503171005 | 15 | 0 | 0.0 | 0.0 | 0.00 | 0.00 | 0.00 | 36 | 1018.8 |
| 20260503170505 | 15 | 0 | 0.0 | 0.0 | 0.00 | 0.00 | 0.00 | 38 | 1018.9 |
| 20260503151005 | 13 | 0 | 0.0 | 1.6 | 0.00 | 0.00 | 0.00 | 46 | 1020.3 |
| 20260503150505 | 13 | 0 | 0.0 | 0.0 | 0.00 | 0.00 | 0.00 | 51 | 1020.3 |
| 20260503131005 | 5 | 0 | 0.0 | 0.0 | 0.00 | 0.00 | 0.00 | 35 | 1020.5 |
| 20260503110504 | 0 | 0 | 0.0 | 0.0 | 0.00 | 0.00 | 0.00 | 46 | 1019.8 |
| 20260503090505 | 0 | 0 | 0.0 | 0.0 | 0.00 | 0.00 | 0.00 | 50 | 1019.2 |
| 20260503081505 | 0 | 0 | 0.0 | 0.0 | 0.00 | 0.00 | 0.00 | 60 | 1019.0 |
| 20260503081004 | 0 | 0 | 0.0 | 0.0 | 0.00 | 0.00 | 0.00 | 61 | 1019.0 |
| 20260503080505 | 0 | 0 | 0.0 | 0.0 | 0.00 | 0.00 | 0.00 | 61 | 1019.1 |
| 20260503072504 | 0 | 0 | 0.0 | 0.0 | 0.00 | 0.00 | 0.00 | 63 | 1018.8 |
| 20260503072004 | 0 | 0 | 0.0 | 0.0 | 0.00 | 0.00 | 0.00 | 64 | 1018.8 |
| 20260503071004 | 0 | 0 | 0.0 | 0.0 | 0.00 | 0.00 | 0.00 | 65 | 1018.9 |
| 20260503070504 | 0 | 0 | 0.0 | 0.0 | 0.00 | 0.00 | 0.00 | 65 | 1018.9 |
| 20260503055004 | 0 | 0 | 0.0 | 0.0 | 0.00 | 0.00 | 0.00 | 72 | 1019.2 |
| 20260503053503 | 1 | 0 | 0.0 | 0.0 | 0.00 | 0.00 | 0.00 | 73 | 1019.2 |
| 20260503053004 | 1 | 0 | 0.0 | 0.0 | 0.00 | 0.00 | 0.00 | 74 | 1019.1 |
| 20260503052504 | 1 | 0 | 0.0 | 0.0 | 0.00 | 0.00 | 0.00 | 74 | 1019.2 |
| 20260503051504 | 1 | 0 | 0.0 | 0.0 | 0.00 | 0.00 | 0.00 | 75 | 1019.2 |
| 20260503051004 | 1 | 0 | 0.0 | 0.0 | 0.00 | 0.00 | 0.00 | 75 | 1019.2 |
| 20260503050005 | 1 | 0 | 0.0 | 0.0 | 0.00 | 0.00 | 0.00 | 75 | 1019.2 |
| 20260503045504 | 1 | 0 | 0.0 | 0.0 | 0.00 | 0.00 | 0.00 | 76 | 1019.3 |
| 20260503045003 | 1 | 0 | 0.0 | 0.0 | 0.00 | 0.00 | 0.00 | 77 | 1019.3 |
| 20260503044504 | 1 | 0 | 0.0 | 0.0 | 0.00 | 0.00 | 0.00 | 77 | 1019.3 |
| 20260503044004 | 1 | 0 | 0.0 | 0.0 | 0.00 | 0.00 | 0.00 | 78 | 1019.2 |
| 20260503043504 | 1 | 0 | 0.0 | 0.0 | 0.00 | 0.00 | 0.00 | 79 | 1019.2 |
| 20260503043004 | 1 | 0 | 0.0 | 0.0 | 0.00 | 0.00 | 0.00 | 79 | 1019.2 |
| 20260503042504 | 1 | 0 | 0.0 | 0.0 | 0.00 | 0.00 | 0.00 | 80 | 1019.2 |
| 20260503041503 | 2 | 0 | 0.0 | 0.0 | 0.00 | 0.00 | 0.00 | 80 | 1019.2 |
| 20260503041003 | 2 | 0 | 0.0 | 0.0 | 0.00 | 0.00 | 0.00 | 80 | 1019.2 |
| 20260503040503 | 2 | 0 | 0.0 | 0.0 | 0.00 | 0.00 | 0.00 | 80 | 1019.3 |
| 20260503040005 | 2 | 0 | 0.0 | 0.0 | 0.00 | 0.00 | 0.00 | 81 | 1019.3 |
| 20260503035503 | 2 | 0 | 0.0 | 0.0 | 0.00 | 0.00 | 0.00 | 81 | 1019.4 |
| 20260503035004 | 2 | 0 | 0.0 | 0.0 | 0.00 | 0.00 | 0.00 | 81 | 1019.5 |
| 20260503034504 | 2 | 0 | 0.0 | 0.0 | 0.00 | 0.00 | 0.00 | 81 | 1019.4 |
| 20260503034003 | 2 | 0 | 0.0 | 0.0 | 0.00 | 0.00 | 0.00 | 81 | 1019.4 |
| 20260503032504 | 3 | 0 | 0.0 | 0.0 | 0.00 | 0.00 | 0.00 | 82 | 1019.3 |
| 20260503032004 | 3 | 0 | 0.0 | 0.0 | 0.00 | 0.00 | 0.00 | 81 | 1019.2 |
| 20260503031504 | 3 | 0 | 0.0 | 0.0 | 0.00 | 0.00 | 0.00 | 81 | 1019.2 |
| 20260503031004 | 3 | 0 | 0.0 | 0.0 | 0.00 | 0.00 | 0.00 | 81 | 1019.2 |
| 20260503030004 | 3 | 0 | 0.0 | 0.0 | 0.00 | 0.00 | 0.00 | 81 | 1019.2 |
| 20260503025503 | 3 | 0 | 0.0 | 0.0 | 0.00 | 0.00 | 0.00 | 80 | 1019.2 |
| 20260503025003 | 3 | 0 | 0.0 | 0.0 | 0.00 | 0.00 | 0.00 | 80 | 1019.2 |
| 20260503024503 | 4 | 0 | 0.0 | 0.0 | 0.00 | 0.00 | 0.00 | 80 | 1019.2 |
| 20260503023506 | 4 | 0 | 0.0 | 0.0 | 0.00 | 0.00 | 0.00 | 79 | 1019.0 |
| 20260503022506 | 5 | 0 | 0.0 | 0.0 | 0.00 | 0.00 | 0.00 | 78 | 1018.9 |
| 20260503022007 | 5 | 0 | 0.0 | 0.0 | 0.00 | 0.00 | 0.00 | 77 | 1018.8 |
| 20260503021507 | 5 | 0 | 0.0 | 0.0 | 0.00 | 0.00 | 0.00 | 76 | 1018.8 |
| 20260503021006 | 5 | 0 | 0.0 | 0.0 | 0.00 | 0.00 | 0.00 | 75 | 1018.8 |
| 20260503020506 | 5 | 0 | 0.0 | 0.0 | 0.00 | 0.00 | 0.00 | 74 | 1018.7 |
| 20260503015506 | 6 | 0 | 0.0 | 0.0 | 0.00 | 0.00 | 0.00 | 71 | 1018.6 |
| 20260503015006 | 6 | 0 | 0.0 | 0.0 | 0.00 | 0.00 | 0.00 | 68 | 1018.5 |
| 20260503014507 | 6 | 0 | 0.0 | 0.0 | 0.00 | 0.00 | 0.00 | 68 | 1018.5 |
| 20260503014006 | 6 | 0 | 0.0 | 0.0 | 0.00 | 0.00 | 0.00 | 68 | 1018.4 |
| 20260503013506 | 6 | 0 | 0.0 | 0.0 | 0.00 | 0.00 | 0.00 | 66 | 1018.2 |
| 20260503013006 | 6 | 0 | 0.0 | 0.0 | 0.00 | 0.00 | 0.00 | 66 | 1018.2 |
| 20260503012506 | 7 | 0 | 0.0 | 0.0 | 0.00 | 0.00 | 0.00 | 65 | 1018.2 |
| 20260503011006 | 7 | 0 | 0.0 | 0.0 | 0.00 | 0.00 | 0.00 | 64 | 1018.0 |
| 20260503010506 | 7 | 0 | 0.0 | 0.0 | 0.00 | 0.00 | 0.00 | 63 | 1017.9 |
| 20260503010006 | 7 | 0 | 0.0 | 0.0 | 0.00 | 0.00 | 0.00 | 63 | 1017.9 |
| 20260503005506 | 8 | 0 | 0.0 | 0.0 | 0.00 | 0.00 | 0.00 | 63 | 1017.9 |
| 20260503005006 | 8 | 0 | 0.0 | 0.0 | 0.00 | 0.00 | 0.00 | 60 | 1017.8 |
| 20260503004006 | 8 | 0 | 0.0 | 0.0 | 0.00 | 0.00 | 0.00 | 58 | 1017.7 |
| 20260503003007 | 9 | 0 | 0.0 | 0.0 | 0.00 | 0.00 | 0.00 | 57 | 1017.6 |
| 20260503002006 | 10 | 0 | 0.0 | 0.0 | 0.00 | 0.00 | 0.00 | 56 | 1017.5 |
| 20260503001506 | 10 | 0 | 0.0 | 0.0 | 0.00 | 0.00 | 0.00 | 56 | 1017.4 |
| 20260503001006 | 10 | 0 | 0.0 | 0.0 | 0.00 | 0.00 | 0.00 | 51 | 1017.4 |
| 20260503000506 | 11 | 0 | 0.0 | 0.0 | 0.00 | 0.00 | 0.00 | 53 | 1017.4 |
| 20260502235506 | 11 | 0 | 0.0 | 0.0 | 0.00 | 0.00 | 0.00 | 48 | 1017.2 |
| 20260502234506 | 11 | 0 | 0.0 | 0.0 | 0.00 | 0.00 | 0.00 | 44 | 1017.1 |
| 20260502233506 | 12 | 0 | 0.0 | 0.0 | 0.00 | 0.00 | 0.00 | 43 | 1017.1 |
| 20260502233006 | 12 | 0 | 0.0 | 0.0 | 0.00 | 0.00 | 0.00 | 44 | 1017.1 |
| 20260502232506 | 12 | 0 | 0.0 | 0.0 | 0.00 | 0.00 | 0.00 | 44 | 1017.1 |
| 20260502232006 | 12 | 0 | 0.0 | 0.0 | 0.00 | 0.00 | 0.00 | 42 | 1017.1 |
| 20260502231506 | 12 | 0 | 0.0 | 0.0 | 0.00 | 0.00 | 0.00 | 43 | 1017.1 |
| 20260502231005 | 12 | 0 | 0.0 | 0.0 | 0.00 | 0.00 | 0.00 | 44 | 1017.1 |
| 20260502230006 | 12 | 0 | 0.0 | 0.0 | 0.00 | 0.00 | 0.00 | 42 | 1017.0 |
| 20260502225506 | 12 | 0 | 0.0 | 0.0 | 0.00 | 0.00 | 0.00 | 43 | 1017.0 |
| 20260502225006 | 12 | 0 | 0.0 | 0.0 | 0.00 | 0.00 | 0.00 | 43 | 1016.9 |
| 20260502224506 | 12 | 0 | 0.0 | 0.0 | 0.00 | 0.00 | 0.00 | 44 | 1016.8 |
| 20260502223505 | 12 | 0 | 0.0 | 0.0 | 0.00 | 0.00 | 0.00 | 41 | 1016.9 |
| 20260502222505 | 12 | 0 | 0.0 | 0.0 | 0.00 | 0.00 | 0.00 | 43 | 1017.0 |
| 20260502222006 | 12 | 0 | 0.0 | 0.0 | 0.00 | 0.00 | 0.00 | 46 | 1016.9 |
| 20260502221506 | 12 | 0 | 0.0 | 0.0 | 0.00 | 0.00 | 0.00 | 41 | 1016.9 |
| 20260502221006 | 12 | 0 | 0.0 | 0.0 | 0.00 | 0.00 | 0.00 | 43 | 1016.9 |
| 20260502220506 | 12 | 0 | 0.0 | 0.0 | 0.00 | 0.00 | 0.00 | 43 | 1016.8 |
| 20260502220006 | 12 | 0 | 0.0 | 0.0 | 0.00 | 0.00 | 0.00 | 40 | 1016.8 |
| 20260502215506 | 12 | 0 | 0.0 | 0.0 | 0.00 | 0.00 | 0.00 | 42 | 1016.8 |
| 20260502215005 | 13 | 0 | 0.0 | 0.0 | 0.00 | 0.00 | 0.00 | 41 | 1016.8 |
| 20260502214506 | 13 | 0 | 0.0 | 0.0 | 0.00 | 0.00 | 0.00 | 39 | 1016.8 |
| 20260502214005 | 13 | 0 | 0.0 | 0.0 | 0.00 | 0.00 | 0.00 | 41 | 1016.7 |
| 20260502213506 | 13 | 0 | 0.0 | 0.0 | 0.00 | 0.00 | 0.00 | 42 | 1016.7 |
| 20260502213006 | 12 | 0 | 0.0 | 1.6 | 0.00 | 0.00 | 0.00 | 43 | 1016.7 |
| 20260502212006 | 12 | 0 | 0.0 | 0.0 | 0.00 | 0.00 | 0.00 | 43 | 1016.7 |
| 20260502211006 | 12 | 0 | 0.0 | 1.6 | 0.00 | 0.00 | 0.00 | 42 | 1016.7 |
| 20260502210506 | 12 | 0 | 0.0 | 1.6 | 0.00 | 0.00 | 0.00 | 43 | 1016.7 |
| 20260502210006 | 12 | 0 | 0.0 | 0.0 | 0.00 | 0.00 | 0.00 | 43 | 1016.7 |
| 20260502205505 | 12 | 0 | 0.0 | 0.0 | 0.00 | 0.00 | 0.00 | 46 | 1016.7 |
| 20260502205005 | 12 | 0 | 0.0 | 0.0 | 0.00 | 0.00 | 0.00 | 44 | 1016.7 |
| 20260502204506 | 12 | 0 | 0.0 | 0.0 | 0.00 | 0.00 | 0.00 | 41 | 1016.7 |
| 20260502204005 | 12 | 0 | 0.0 | 0.0 | 0.00 | 0.00 | 0.00 | 45 | 1016.8 |
| 20260502203506 | 12 | 0 | 0.0 | 0.0 | 0.00 | 0.00 | 0.00 | 48 | 1016.7 |
| 20260502203006 | 12 | 0 | 0.0 | 0.0 | 0.00 | 0.00 | 0.00 | 44 | 1016.7 |
| 20260502202506 | 12 | 0 | 0.0 | 0.0 | 0.00 | 0.00 | 0.00 | 42 | 1016.7 |
| 20260502201506 | 13 | 0 | 0.0 | 0.0 | 0.00 | 0.00 | 0.00 | 44 | 1016.9 |